Kalamazoo, MI

7:19 AM EDT on October 21, 2017 (GMT -0400)
Kalamazoo-Battle Creek International

Weather History for KAZO - January, 2013

Change the Weather History Date:

Wednesday, January 16, 2013

  Actual Average Record
Temperature  
Mean Temperature 25 °F 24 °F  
Max Temperature 35 °F 31 °F 56 °F (1949)
Min Temperature 15 °F 18 °F -18 °F (1982)
Degree Days  
Heating Degree Days 40 41  
Month to date heating degree days 559 648  
Since 1 July heating degree days 2861 3099  
Cooling Degree Days 0 0  
Month to date cooling degree days 0 0  
Year to date cooling degree days 0 0  
Moisture  
Dew Point 19 °F    
Average Humidity 70    
Maximum Humidity 92    
Minimum Humidity 47    
Precipitation  
Precipitation T in 0.05 in 0.53 in (2012)
Month to date precipitation 1.54 0.91  
Year to date precipitation 1.54 0.91  
Sea Level Pressure  
Sea Level Pressure 29.97 in    
Wind  
Wind Speed 10 mph (SW)    
Max Wind Speed 23 mph    
Max Gust Speed 31 mph    
Visibility 8 miles    
Events Snow    
T = Trace of Precipitation, MM = Missing Value Source: NWS Daily Summary

Daily Weather History Graph

Daily Weather History Graph

Search for Another Location

Airport or City:

Trip Planner

Search our weather history database for the weather conditions in past years. The results will help you decide how hot, cold, wet, or windy it might be!

Date:

Astronomy

Jan. 16, 2013 Rise Set
Actual Time 8:07 AM EST 5:36 PM EST
Civil Twilight 7:36 AM EST 6:07 PM EST
Nautical Twilight 7:02 AM EST 6:42 PM EST
Astronomical Twilight 6:28 AM EST 7:15 PM EST
Moon 10:36 AM EST (1/16) 11:35 PM EST (1/16)
Length of Visible Light 10h 30m
Length of Day
9h 29m
Waxing Crescent, 28% of the Moon is Illuminated
Jan 16
Waxing Crescent
Jan 18
First Quarter
Jan 26
Full
Feb 3
Last Quarter
Feb 10
New

Hourly Weather History & Observations

Time (EST) Temp. Windchill Dew Point Humidity Pressure Visibility Wind Dir Wind Speed Gust Speed Precip Events Conditions
1:53 AM 17.1 °F - 14.0 °F 88% 30.12 in 5.0 mi Calm Calm - N/A   Clear
2:53 AM 16.0 °F - 12.9 °F 88% 30.11 in 5.0 mi Calm Calm - N/A   Clear
3:53 AM 17.1 °F 11.7 °F 14.0 °F 88% 30.10 in 5.0 mi North 3.5 mph - N/A   Partly Cloudy
4:53 AM 18.0 °F - 15.1 °F 88% 30.08 in 5.0 mi Calm Calm - N/A   Overcast
5:53 AM 19.9 °F 13.4 °F 17.1 °F 89% 30.04 in 5.0 mi South 4.6 mph - N/A   Overcast
6:53 AM 19.0 °F 11.1 °F 16.0 °F 88% 30.02 in 6.0 mi SSW 5.8 mph - N/A   Clear
7:53 AM 19.0 °F 10.0 °F 15.1 °F 85% 30.00 in 10.0 mi SSW 6.9 mph - N/A   Clear
8:53 AM 21.0 °F 10.6 °F 18.0 °F 88% 30.00 in 6.0 mi SSW 9.2 mph - N/A   Clear
9:53 AM 24.1 °F 13.1 °F 19.9 °F 84% 30.00 in 7.0 mi SW 11.5 mph - N/A   Clear
10:53 AM 28.0 °F 17.5 °F 21.0 °F 75% 29.98 in 7.0 mi SW 12.7 mph - N/A   Clear
11:53 AM 30.0 °F 18.7 °F 17.1 °F 59% 29.93 in 10.0 mi SW 16.1 mph - N/A   Clear
12:53 PM 32.0 °F 21.2 °F 17.1 °F 54% 29.90 in 10.0 mi SW 16.1 mph 21.9 mph N/A   Clear
1:53 PM 34.0 °F 23.8 °F 16.0 °F 48% 29.87 in 10.0 mi SW 16.1 mph 24.2 mph N/A   Clear
2:53 PM 33.8 °F 22.8 °F 15.8 °F 48% 29.82 in 10.0 mi SW 18.4 mph 27.6 mph N/A   Overcast
3:53 PM 34.0 °F 22.7 °F 17.1 °F 50% 29.86 in 10.0 mi SW 19.6 mph 27.6 mph N/A   Overcast
4:53 PM 34.0 °F 24.6 °F 19.0 °F 54% 29.88 in 10.0 mi SW 13.8 mph 24.2 mph N/A   Overcast
5:53 PM 34.0 °F 24.6 °F 21.0 °F 59% 29.90 in 10.0 mi WSW 13.8 mph 21.9 mph N/A   Overcast
6:53 PM 33.1 °F 23.0 °F 24.1 °F 70% 29.93 in 10.0 mi WSW 15.0 mph 27.6 mph N/A   Overcast
7:53 PM 33.1 °F 23.9 °F 26.1 °F 75% 29.95 in 10.0 mi WSW 12.7 mph - 0.00 in Snow Light Snow
8:53 PM 33.1 °F 25.5 °F 27.0 °F 78% 29.96 in 10.0 mi West 9.2 mph - 0.00 in   Overcast
9:53 PM 35.1 °F 27.4 °F 28.0 °F 76% 29.97 in 9.0 mi West 10.4 mph - N/A   Overcast
10:53 PM 35.1 °F 27.4 °F 28.0 °F 76% 29.99 in 8.0 mi West 10.4 mph - N/A   Overcast
11:53 PM 35.1 °F 29.3 °F 28.0 °F 76% 30.01 in 8.0 mi West 6.9 mph - N/A   Overcast